This is the latest recevied weather packets stored in our database for station/object IZ1RFL-3. If no packets are shown the sender has not sent any weather packets the latest 10 day(s).
| Time | Temp. | Humidity | Pressure | Rain* | Wind** | Luminosity | Snow |
|---|---|---|---|---|---|---|---|
| 1777887965 | 17.78° C | 56% | 1019.1 hPa | - | - | - | - |
| 1777887065 | 17.78° C | 56% | 1019 hPa | - | - | - | - |
| 1777886165 | 17.22° C | 58% | 1019 hPa | - | - | - | - |
| 1777885265 | 16.67° C | 60% | 1018.8 hPa | - | - | - | - |
| 1777884365 | 16.67° C | 62% | 1019 hPa | - | - | - | - |
| 1777883465 | 16.11° C | 60% | 1019 hPa | - | - | - | - |
| 1777882565 | 15.56° C | 60% | 1018.9 hPa | - | - | - | - |
| 1777881665 | 15.56° C | 64% | 1018.8 hPa | - | - | - | - |
| 1777880765 | 15° C | 65% | 1018.7 hPa | - | - | - | - |
| 1777879865 | 14.44° C | 65% | 1018.6 hPa | - | - | - | - |
| 1777878965 | 14.44° C | 65% | 1018.2 hPa | - | - | - | - |
| 1777878065 | 13.89° C | 65% | 1018.2 hPa | - | - | - | - |
| 1777877165 | 13.89° C | 66% | 1018.2 hPa | - | - | - | - |
| 1777876265 | 13.33° C | 66% | 1018 hPa | - | - | - | - |
| 1777875365 | 13.89° C | 65% | 1017.8 hPa | - | - | - | - |
| 1777874465 | 13.89° C | 62% | 1017.8 hPa | - | - | - | - |
| 1777873565 | 13.33° C | 65% | 1017.8 hPa | - | - | - | - |
| 1777872665 | 13.33° C | 61% | 1017.6 hPa | - | - | - | - |
| 1777871765 | 13.33° C | 62% | 1017.5 hPa | - | - | - | - |
| 1777870865 | 13.89° C | 58% | 1017.5 hPa | - | - | - | - |
| 1777869965 | 13.89° C | 59% | 1017.4 hPa | - | - | - | - |
| 1777869065 | 13.33° C | 59% | 1017.3 hPa | - | - | - | - |
| 1777868165 | 13.33° C | 58% | 1017.2 hPa | - | - | - | - |
| 1777867265 | 13.33° C | 62% | 1017.1 hPa | - | - | - | - |
| 1777866365 | 13.89° C | 58% | 1017 hPa | - | - | - | - |
* Rain since midnight (hover to see other rain measurements)
** Current wind speed in m/s (hover to see current wind gust speed)